Tracking 29892 objects as of 21-Nov-2024
HD Live streaming from Space Station
objects crossing your sky now

CZ-6A DEB

Track CZ-6A DEB now!
10-day predictions


NORAD ID: 54427
Int'l Code: 2022-151FB
Perigee: 828.4 km
Apogee: 1,087.4 km
Inclination: 99.0 °
Period: 104.1 minutes
Semi major axis: 7328 km
RCS: Unknown
Launch date: November 11, 2022
Source: People's Republic of China (PRC)
Launch site: Taiyaun Space Center, China (TSC)

Note: This is SATELLITE DEBRIS
Your satellite tracking list
Your tracking list is empty




NASA's NSSDC Master Catalog

Two Line Element Set (TLE):
1 54427U 22151FB  24325.90191900  .00002101  00000-0  17193-2 0  9995
2 54427  98.9927 305.5521 0176691 263.1776  94.9248 13.83698283101965
Source of the keplerian elements: AFSPC